TimeAKDT,TemperatureF,Dew PointF,Humidity,Sea Level PressureIn,VisibilityMPH,Wind Direction,Wind SpeedMPH,Gust SpeedMPH,PrecipitationIn,Events,Conditions,WindDirDegrees,DateUTC
12:53 AM,36.0,30.9,82,29.82,10.0,SE,23.0,27.6,N/A,,Overcast,140,2013-03-23 08:53:00
1:53 AM,36.0,30.9,82,29.80,10.0,SSE,19.6,26.5,N/A,,Overcast,150,2013-03-23 09:53:00
2:53 AM,34.0,32.0,92,29.78,6.0,SSE,26.5,32.2,0.00,Snow,Light Snow,150,2013-03-23 10:53:00
3:05 AM,33.8,32.0,93,29.77,3.0,SE,24.2,32.2,0.00,Snow,Light Snow,140,2013-03-23 11:05:00
3:26 AM,33.8,32.0,93,29.77,5.0,SE,24.2,32.2,0.00,Snow,Light Snow,140,2013-03-23 11:26:00
3:53 AM,34.0,32.0,92,29.77,4.0,SE,24.2,31.1,0.00,Snow,Light Snow,140,2013-03-23 11:53:00
4:53 AM,34.0,32.0,92,29.74,3.0,SE,23.0,29.9,0.00,Snow,Light Snow,140,2013-03-23 12:53:00
5:53 AM,34.0,32.0,92,29.73,4.0,SE,19.6,-,0.00,Snow,Light Snow,140,2013-03-23 13:53:00
6:53 AM,34.0,32.0,92,29.70,4.0,SSE,19.6,-,0.01,Snow,Light Snow,150,2013-03-23 14:53:00
7:12 AM,33.8,32.0,93,29.69,4.0,SSE,16.1,27.6,0.00,Snow,Light Snow,150,2013-03-23 15:12:00
7:53 AM,34.0,32.0,92,29.69,7.0,SSE,18.4,25.3,0.01,Snow,Light Snow,150,2013-03-23 15:53:00
8:53 AM,34.0,32.0,92,29.68,9.0,SSE,17.3,-,0.00,Snow,Light Snow,150,2013-03-23 16:53:00
9:49 AM,33.8,32.0,93,29.67,3.0,SSE,10.4,-,0.00,Snow,Light Snow,150,2013-03-23 17:49:00
9:53 AM,34.0,32.0,92,29.68,2.0,SSE,10.4,-,0.00,Snow,Light Snow,150,2013-03-23 17:53:00
10:11 AM,33.8,32.0,93,29.67,1.5,South,5.8,-,0.01,Snow,Light Snow,180,2013-03-23 18:11:00
10:18 AM,33.8,32.0,93,29.67,3.0,SSW,3.5,-,0.01,Snow,Light Snow,210,2013-03-23 18:18:00
10:22 AM,33.8,32.0,93,29.67,3.0,SSW,3.5,-,0.02,Snow,Light Snow,200,2013-03-23 18:22:00
10:44 AM,35.6,32.0,87,29.66,3.0,WSW,13.8,-,0.02,Snow,Light Snow,250,2013-03-23 18:44:00
10:53 AM,35.1,33.1,92,29.67,3.0,WSW,13.8,-,0.02,Snow,Light Snow,250,2013-03-23 18:53:00
10:57 AM,35.6,33.8,93,29.66,4.0,WSW,15.0,-,0.01,Snow,Light Snow,250,2013-03-23 18:57:00
11:12 AM,35.6,33.8,93,29.66,4.0,WSW,17.3,-,0.01,Snow,Light Snow,250,2013-03-23 19:12:00
11:20 AM,35.6,33.8,93,29.66,4.0,WSW,18.4,-,0.01,Snow,Light Snow,250,2013-03-23 19:20:00
11:40 AM,35.6,33.8,93,29.65,2.5,West,19.6,-,0.01,Snow,Light Snow,260,2013-03-23 19:40:00
11:53 AM,35.1,33.1,92,29.66,2.5,WSW,21.9,-,0.01,Snow,Light Snow,250,2013-03-23 19:53:00
12:03 PM,35.6,33.8,93,29.66,3.0,West,18.4,-,0.00,Snow,Light Snow,260,2013-03-23 20:03:00
12:53 PM,36.0,33.1,89,29.66,9.0,West,20.7,-,0.00,Rain-Snow,Light Snow,260,2013-03-23 20:53:00
1:37 PM,37.4,33.8,87,29.66,9.0,West,24.2,-,0.00,Snow,Light Snow,260,2013-03-23 21:37:00
1:53 PM,37.0,33.1,86,29.66,9.0,West,21.9,-,0.00,Snow,Light Snow,270,2013-03-23 21:53:00
2:00 PM,37.4,33.8,87,29.66,9.0,West,24.2,-,0.00,Snow,Light Snow,260,2013-03-23 22:00:00
2:40 PM,37.4,33.8,87,29.66,10.0,West,25.3,-,0.00,,Overcast,260,2013-03-23 22:40:00
2:53 PM,37.0,33.1,86,29.66,10.0,West,23.0,31.1,0.00,,Overcast,260,2013-03-23 22:53:00
3:20 PM,37.4,33.8,87,29.65,10.0,West,24.2,-,N/A,,Overcast,260,2013-03-23 23:20:00
3:53 PM,37.9,33.1,83,29.66,10.0,West,23.0,-,N/A,,Overcast,270,2013-03-23 23:53:00
4:53 PM,37.0,33.1,86,29.66,8.0,West,20.7,-,N/A,,Overcast,260,2013-03-24 00:53:00
5:36 PM,37.4,33.8,87,29.66,6.0,West,19.6,-,0.00,Rain,Light Rain,270,2013-03-24 01:36:00
5:53 PM,36.0,33.1,89,29.67,3.0,West,19.6,-,0.01,Snow,Light Snow,270,2013-03-24 01:53:00
6:53 PM,35.1,33.1,92,29.68,5.0,North,12.7,-,0.01,Snow,Light Snow,350,2013-03-24 02:53:00
7:53 PM,34.0,30.9,89,29.71,6.0,North,23.0,29.9,0.00,Snow,Light Snow,10,2013-03-24 03:53:00
8:43 PM,32.0,28.4,87,29.75,4.0,North,24.2,31.1,0.00,Snow,Light Snow,10,2013-03-24 04:43:00
8:53 PM,32.0,28.9,88,29.76,2.5,North,21.9,31.1,0.00,Snow,Light Snow,10,2013-03-24 04:53:00
9:13 PM,32.0,28.4,87,29.78,4.0,North,23.0,34.5,0.00,Snow,Light Snow,360,2013-03-24 05:13:00
9:26 PM,30.2,28.4,93,29.79,4.0,North,20.7,32.2,0.00,Snow,Light Snow,10,2013-03-24 05:26:00
9:44 PM,30.2,26.6,86,29.80,5.0,North,23.0,31.1,0.00,Snow,Light Snow,10,2013-03-24 05:44:00
9:49 PM,30.2,26.6,86,29.80,4.0,North,20.7,31.1,0.00,Snow,Light Snow,10,2013-03-24 05:49:00
9:53 PM,30.9,27.0,85,29.81,4.0,North,24.2,31.1,0.00,Snow,Light Snow,10,2013-03-24 05:53:00
10:01 PM,30.2,26.6,86,29.82,4.0,North,24.2,32.2,0.00,Snow,Light Snow,10,2013-03-24 06:01:00
10:37 PM,30.2,24.8,80,29.84,10.0,North,26.5,34.5,0.00,,Overcast,360,2013-03-24 06:37:00
10:53 PM,30.0,24.1,79,29.86,10.0,North,24.2,32.2,0.00,,Overcast,360,2013-03-24 06:53:00
11:53 PM,28.0,23.0,81,29.91,10.0,North,25.3,36.8,0.00,,Overcast,360,2013-03-24 07:53:00